DW8425 Weather Reports


Display with metric or nautical units.
time (UTC)temp
F
wind
direction
speed
MPH
gust
MPH
rain 1hr
in
rain 24hr
in
rain mn
in
humidity
%
barometer
mb
20260509114537 27 148 0.0 1.0 0.00 0.00 0.00 80 1016.6
20260509113017 27 148 0.0 1.0 0.00 0.00 0.00 81 1016.5
20260509111514 26 148 0.0 2.0 0.00 0.00 0.00 80 1016.4
20260509110015 27 148 0.0 2.0 0.00 0.00 0.00 78 1016.2
20260509104515 27 148 1.0 3.0 0.00 0.00 0.00 79 1016.2
20260509103009 27 131 0.0 4.0 0.00 0.00 0.00 79 1016.0
20260509101507 28 131 0.0 2.0 0.00 0.00 0.00 78 1015.9
20260509100004 29 139 0.0 1.0 0.00 0.00 0.00 75 1015.6
20260509094604 30 164 0.0 2.0 0.00 0.00 0.00 74 1015.5
20260509093057 30 163 0.0 2.0 0.00 0.00 0.00 73 1015.4
20260509091559 31 164 0.0 1.0 0.00 0.00 0.00 72 1015.1
20260509084549 32 166 0.0 1.0 0.00 0.00 0.00 69 1015.0
20260509083051 33 167 0.0 3.0 0.00 0.00 0.00 67 1014.7
20260509081542 34 168 0.0 1.0 0.00 0.00 0.00 66 1014.7
20260509080055 35 169 0.0 1.0 0.00 0.00 0.00 63 1014.8
20260509074540 36 360 0.0 1.0 0.00 0.00 0.00 62 1014.6
20260509073036 36 360 0.0 2.0 0.00 0.00 0.00 62 1014.6
20260509071533 36 148 0.0 4.0 0.00 0.00 0.00 61 1014.5
20260509070035 38 349 0.0 2.0 0.00 0.00 0.00 58 1014.3
20260509064527 39 336 0.0 1.0 0.00 0.00 0.00 56 1014.2
20260509063023 40 342 0.0 2.0 0.00 0.00 0.00 55 1013.9
20260509061521 41 109 0.0 1.0 0.00 0.00 0.00 52 1014.1
20260509060021 41 112 0.0 1.0 0.00 0.00 0.00 53 1014.1
20260509054518 42 74 0.0 1.0 0.00 0.00 0.00 50 1014.0
20260509053029 43 11 0.0 1.0 0.00 0.00 0.00 49 1014.1
20260509051517 43 11 1.0 3.0 0.00 0.00 0.00 47 1014.0
20260509050037 43 15 0.0 2.0 0.00 0.00 0.00 49 1014.0
20260509044517 43 355 0.0 2.0 0.00 0.00 0.00 48 1014.0
20260509043031 44 34 0.0 2.0 0.00 0.00 0.00 48 1013.8
20260509041516 44 33 0.0 1.0 0.00 0.00 0.00 48 1013.9
20260509040015 45 22 0.0 2.0 0.00 0.00 0.00 48 1013.8
20260509034516 46 28 0.0 2.0 0.00 0.00 0.00 47 1013.6
20260509033019 47 360 0.0 2.0 0.00 0.00 0.00 44 1013.3
20260509031514 50 84 0.0 1.0 0.00 0.00 0.00 42 1013.1
20260509030019 52 360 0.0 2.0 0.00 0.00 0.00 38 1012.8
20260509024513 53 323 0.0 3.0 0.00 0.00 0.00 36 1012.4
20260509023013 54 360 1.0 12.0 0.00 0.00 0.00 34 1012.3
20260509021512 55 302 2.0 6.0 0.00 0.00 0.00 32 1012.0
20260509020012 56 304 2.0 6.0 0.00 0.00 0.00 30 1011.8
20260509014512 56 321 1.0 7.0 0.00 0.00 0.00 31 1011.6
20260509013011 56 303 1.0 7.0 0.00 0.00 0.00 29 1011.4
20260509011511 58 344 4.0 10.0 0.00 0.00 0.00 27 1011.4
20260509010014 59 360 2.0 9.0 0.00 0.00 0.00 27 1011.3
20260509004510 60 345 1.0 4.0 0.00 0.00 0.00 27 1011.1
20260509003008 61 240 0.0 4.0 0.00 0.00 0.00 27 1011.2
20260509001507 61 315 2.0 6.0 0.00 0.00 0.00 27 1011.4
20260509000006 61 256 1.0 6.0 0.00 0.00 0.00 25 1011.5
20260508234505 60 323 1.0 7.0 0.00 0.00 0.00 31 1011.5
20260508233004 60 302 2.0 7.0 0.00 0.00 0.00 27 1011.6
20260508231504 60 324 3.0 7.0 0.00 0.00 0.00 28 1011.6
20260508230005 60 335 1.0 10.0 0.00 0.00 0.00 27 1011.6
20260508224506 61 315 1.0 7.0 0.00 0.00 0.00 25 1011.8
20260508223003 62 319 3.0 6.0 0.00 0.00 0.00 25 1011.5
20260508221502 63 247 2.0 5.0 0.00 0.00 0.00 24 1011.5
20260508220000 64 313 2.0 11.0 0.00 0.00 0.00 25 1011.7
20260508214601 64 244 3.0 8.0 0.00 0.00 0.00 25 1011.8
20260508213059 64 303 1.0 9.0 0.00 0.00 0.00 24 1012.0
20260508211558 64 286 3.0 7.0 0.00 0.00 0.00 23 1011.9
20260508210059 63 311 2.0 7.0 0.00 0.00 0.00 24 1011.9
20260508204558 63 313 3.0 9.0 0.00 0.00 0.00 24 1011.9
20260508203102 64 333 1.0 8.0 0.00 0.00 0.00 24 1011.9
20260508201558 64 234 1.0 5.0 0.00 0.00 0.00 24 1012.0
20260508200109 63 336 2.0 8.0 0.00 0.00 0.00 25 1012.1
20260508194555 64 355 2.0 6.0 0.00 0.00 0.00 25 1012.0
20260508193102 63 308 2.0 6.0 0.00 0.00 0.00 24 1012.2
20260508191550 62 9 1.0 6.0 0.00 0.00 0.00 25 1012.1
20260508190047 61 329 2.0 8.0 0.00 0.00 0.00 25 1012.4
20260508184548 61 263 1.0 8.0 0.00 0.00 0.00 25 1012.4
20260508183100 61 321 1.0 6.0 0.00 0.00 0.00 28 1012.3
20260508181557 61 194 1.0 5.0 0.00 0.00 0.00 28 1012.4
20260508180042 60 164 1.0 5.0 0.00 0.00 0.00 30 1012.6
20260508174539 59 244 2.0 6.0 0.00 0.00 0.00 33 1012.7
20260508173037 58 194 1.0 8.0 0.00 0.00 0.00 33 1012.8
20260508171537 57 238 1.0 5.0 0.00 0.00 0.00 37 1012.8
20260508170032 57 213 1.0 3.0 0.00 0.00 0.00 38 1012.9
20260508164529 55 49 1.0 4.0 0.00 0.00 0.00 42 1013.0
20260508163026 53 178 2.0 4.0 0.00 0.00 0.00 46 1013.2
20260508161531 50 194 0.0 2.0 0.00 0.00 0.00 56 1013.4
20260508160017 48 186 2.0 4.0 0.00 0.00 0.00 58 1013.4
20260508154511 45 153 1.0 3.0 0.00 0.00 0.00 64 1013.5
20260508153006 42 153 1.0 3.0 0.00 0.00 0.00 71 1013.8
20260508151501 39 156 0.0 1.0 0.00 0.00 0.00 74 1013.9
20260508150001 37 156 0.0 2.0 0.00 0.00 0.00 78 1014.0
20260508144606 35 157 0.0 2.0 0.00 0.00 0.00 81 1014.1
20260508143103 33 159 0.0 2.0 0.00 0.00 0.00 85 1014.2
20260508141607 31 160 0.0 0.0 0.00 0.00 0.00 88 1014.2
20260508140105 29 156 0.0 0.0 0.00 0.00 0.00 89 1014.3
20260508134558 28 156 0.0 1.0 0.00 0.00 0.00 89 1014.2
20260508133056 27 156 0.0 0.0 0.00 0.00 0.00 89 1014.0
20260508131558 27 156 0.0 0.0 0.00 0.00 0.00 88 1013.9
20260508130053 27 156 0.0 1.0 0.00 0.00 0.00 88 1013.7
20260508124554 27 156 0.0 2.0 0.00 0.00 0.00 87 1013.5
20260508123048 27 133 0.0 0.0 0.00 0.00 0.00 87 1013.4
20260508121548 28 133 0.0 1.0 0.00 0.00 0.00 85 1013.3
20260508120044 29 134 0.0 0.0 0.00 0.00 0.00 85 1013.1